This is the latest recevied weather packets stored in our database for station/object KC2WGU. If no packets are shown the sender has not sent any weather packets the latest 10 day(s).
| Time | Temp. | Humidity | Pressure | Rain* | Wind** | Luminosity | Snow |
|---|---|---|---|---|---|---|---|
| 1787941818 | 23.33° C | 68% | 1016.7 hPa | 0 mm | - | 329 W/m² | - |
| 1787941217 | 22.78° C | 67% | 1016.7 hPa | 0 mm | - | 329 W/m² | - |
| 1787940617 | 22.22° C | 73% | 1016.6 hPa | 0 mm | - | 329 W/m² | - |
| 1787939417 | 22.78° C | 68% | 1016.6 hPa | 0 mm | - | 329 W/m² | - |
| 1787938218 | 23.33° C | 66% | 1016.4 hPa | 0 mm | - | 329 W/m² | - |
| 1787937618 | 22.78° C | 65% | 1016.4 hPa | 0 mm | - | 329 W/m² | - |
| 1787937017 | 23.33° C | 67% | 1016.5 hPa | 0 mm | - | 329 W/m² | - |
| 1787936417 | 22.78° C | 70% | 1016.5 hPa | 0 mm | - | 329 W/m² | - |
| 1787935818 | 22.78° C | 72% | 1016.6 hPa | 0 mm | - | 329 W/m² | - |
| 1787935217 | 22.78° C | 71% | 1016.7 hPa | 0 mm | - | 329 W/m² | - |
| 1787934617 | 22.22° C | 77% | 1016.8 hPa | 0 mm | - | 329 W/m² | - |
| 1787934017 | 22.22° C | 79% | 1016.8 hPa | 0 mm | - | 329 W/m² | - |
| 1787933418 | 22.22° C | 75% | 1016.8 hPa | 0 mm | - | 329 W/m² | - |
| 1787932817 | 22.22° C | 74% | 1016.9 hPa | 0 mm | - | 329 W/m² | - |
| 1787932217 | 21.67° C | 74% | 1017 hPa | 0 mm | - | 329 W/m² | - |
| 1787931018 | 22.22° C | 78% | 1017 hPa | 0 mm | - | 329 W/m² | - |
| 1787930420 | 21.67° C | 77% | 1017.2 hPa | 0 mm | - | 329 W/m² | - |
| 1787929219 | 21.67° C | 80% | 1017 hPa | 0 mm | - | 329 W/m² | - |
| 1787928618 | 22.22° C | 78% | 1017 hPa | 0 mm | - | 329 W/m² | - |
| 1787927417 | 21.67° C | 80% | 1016.9 hPa | 0 mm | - | 329 W/m² | - |
| 1787926818 | 21.11° C | 80% | 1016.7 hPa | 0 mm | - | 329 W/m² | - |
| 1787926217 | 21.11° C | 80% | 1016.5 hPa | 0 mm | - | 329 W/m² | - |
| 1787925626 | 20.56° C | 84% | 1016.4 hPa | 0 mm | - | 329 W/m² | - |
| 1787925023 | 20.56° C | 86% | 1016.5 hPa | 0 mm | - | 329 W/m² | - |
| 1787924419 | 20° C | 87% | 1016.4 hPa | 0 mm | - | 329 W/m² | - |
* Rain latest hour (hover to see other rain measurements)
** Current wind speed in m/s (hover to see current wind gust speed)